Location: Amherst
(42.5000°N, 72.5000°W)
Time: 23:20:13
(UTC-04:00)

ISS - Pass Details

Date: 22 May 2018
Orbit: 402 x 407 km, 51.6° (Epoch: 25 May)

Event Time Altitude Azimuth Distance (km) Brightness Sun altitude
Rises 00:03:31 0° 287° (WNW) 2,317 0.4 -26.3°
Reaches altitude 10° 00:06:06 10° 308° (NW) 1,458 -0.4 -26.4°
Maximum altitude 00:08:22 17° 352° (N) 1,096 -0.8 -26.5°
Drops below altitude 10° 00:10:39 10° 37° (NE) 1,458 -0.5 -26.6°
Sets 00:13:14 0° 58° (ENE) 2,318 0.3 -26.7°
